Flag for U.S.A. Weather past 2 weeks in Anchorage, Alaska, U.S.A.

Now
26 °F

Passing clouds.


Feels Like: 22 °F
Forecast: 29 / 35 °F
Wind: 3 mph from North

Location: Lake Hood Seaplane

Current Time: Dec 28, 2014 at 10:29:34 PM

Latest Report: Dec 28, 2014 at 9:53 PM


Visibility: 10 mi

Pressure: 30.42 "Hg

Humidity: 77%

Dew point: 20 °F

Location of AnchorageLocation

Historic Weather in Anchorage — Graph

°F

Anchorage temperature yesterday

Maximum temperature yesterday: 31 °F (at 12:53 AM)
Minimum temperature yesterday: 20 °F (at 9:53 PM)
Average temperature yesterday: 25 °F

Past Weeks' High & Low Weather Summary

 TemperatureHumidityPressure
High39 °F (Dec 25, 4:53 PM)93% (Dec 23, 6:00 PM)30.53 "Hg (Dec 23, 6:00 PM)
Low15 °F (Dec 18, 10:53 PM)50% (Dec 25, 4:53 PM)28.88 "Hg (Dec 20, 5:53 PM)
Average27 °F81%29.58 "Hg
* Reported Dec 13 8:53 PM — Dec 28 8:53 PM, Anchorage, Weather by CustomWeather, © 2014

Note: Actual official high and low records may vary slightly from our data, if they occured in-between our weather recording intervals... More about our weather records

Advertising

Anchorage weather history for previous 24 hours

 ConditionsComfort  
Time TempWeatherWind HumidityBarometerVisibility
8:53 PM
Dec 28
26 °FMostly cloudy.3 mph74%30.42 "Hg10 mi
7:53 PM26 °FOvercast.5 mph74%30.43 "Hg10 mi
6:53 PM28 °FOvercast.6 mph69%30.42 "Hg10 mi
5:53 PM28 °FOvercast.3 mph72%30.44 "Hg10 mi
4:53 PM27 °FOvercast.3 mph69%30.44 "Hg10 mi
3:53 PM26 °FOvercast.No wind77%30.45 "Hg10 mi
2:53 PM26 °FOvercast.3 mph77%30.46 "Hg10 mi
1:53 PM25 °FOvercast.7 mph78%30.46 "Hg10 mi
12:53 PM25 °FSunny.6 mph75%30.47 "Hg10 mi
11:53 AM24 °FSunny.No wind77%30.47 "Hg10 mi
10:53 AM23 °FSunny.No wind81%30.47 "Hg10 mi
9:53 AM23 °FClear.No wind81%30.47 "Hg10 mi
8:53 AM23 °FClear.No wind78%30.46 "Hg10 mi
7:53 AM23 °FClear.5 mph78%30.47 "Hg10 mi
6:53 AM22 °FClear.5 mph78%30.48 "Hg10 mi
5:53 AM22 °FClear.7 mph82%30.47 "Hg10 mi
4:53 AM22 °FClear.6 mph82%30.50 "Hg10 mi
3:53 AM23 °FClear.5 mph78%30.51 "Hg10 mi
2:53 AM23 °FClear.9 mph78%30.51 "Hg10 mi
1:53 AM22 °FClear.7 mph78%30.49 "Hg10 mi
12:53 AM23 °FClear.9 mph81%30.49 "Hg10 mi
11:53 PM
Dec 27
22 °FClear.7 mph82%30.50 "Hg10 mi
10:53 PM22 °FClear.5 mph82%30.52 "Hg10 mi
Weather by CustomWeather, © 2014

See weather overviewHow to use our weather pages